Weather in Nizwa

Oman     22°56′06″N   57°31′55″E
temp.,
°C
wind,
m/s
gust,
m/s
humid.,
%
clouds,
%
prec.,
mm/h
press.,
hPa
HPBL,
m
16 september, thu
thu1601:00+26nne003892 0.0 100711
04:00+26nnw2232100 0.0 100611
07:00+29nne0122100 0.0 100732
10:00+33sw221674 0.0 10071679
13:00+36sw451224 0.0 10043404
16:00+36sw241252 0.0 10024051
19:00+32ne331514 0.0 100472
22:00+28ese2228100 0.0 100738
17 september, fri
fri1701:00+27nw113466 0.0 100517
04:00+25n013477 0.0 100511
07:00+28n112227 0.0 100666
10:00+34sw231292 0.0 10061754
13:00+37ssw45115 0.0 10033376
16:00+37sw231122 0.0 10014214
19:00+32ne33152 0.0 100450
22:00+30e45202 0.0 100676
18 september, sat
sat1801:00+26se114811 0.0 100628
04:00+25n01535 0.0 100611
07:00+27nne11395 0.0 100871
10:00+34sw23186 0.0 10071832
13:00+37ssw45165 0.0 10043547
16:00+36wsw221498 0.0 10033602
19:00+33sse1321100 0.0 1006245
22:00+27se23565 0.0 1009311
19 september, sun
sun1901:00+25sw116169 0.0 1008107
04:00+25wnw11635 0.0 100822
07:00+25nne01565 0.0 1010123
10:00+32ssw23265 0.0 10091757
13:00+36ssw46192 0.0 10063354
16:00+35w231799 0.0 10053323
19:00+32sse462598 0.0 1007723
22:00+26ese345913 0.0 1011306
20 september, mon
mon2001:00+24s11690 0.0 1009125
04:00+23ne01670 0.0 100930
07:00+25nnw11524 0.0 1009104
10:00+32ssw23253 0.0 10091693
13:00+35ssw45208 0.0 10063092
16:00+35nw3316100 0.0 10043024
19:00+32sse4628100 0.0 10071061
22:00+28se224411 0.0 1009287